FLOCK 4Q 8

导读

FLOCK 4Q 8是美国Planet公司研制的一颗SuperDove遥感立方体卫星,隶属于FLOCK 4Q星群,于2023年11月11日发射入轨,属于PlanetScope鸽群遥感星座的组成部分。作为3U立方星,它重量仅约5kg,具备3米分辨率光学成像能力,拥有8个光谱波段,可服务于农业监测、自然资源管理、城市开发等多领域应用,助力星座维持每日全球覆盖的对地观测能力。

基本信息
目录编号:
58279
目录名称:
FLOCK 4Q 8
国际标识:
2023-174Z
轨道中心:
EARTH
卫星名称:
FLOCK 4Q 8
卫星全名:
--
卫星状态:
已陨落 最后检测时间 2025-02-25
发射日期:
2023-11-11 UTC
国别 :
美国 (US)
星等 :
--
轨道信息
数据来源 国际轨道数据
星历时间: 2025-02-20T13:40:29+0800
轨道信息已过期476天
半长轴: 6578.39km
偏心率: 0.0007312
轨道倾角: 97.409°
近地点辐角 275.254°
升交点赤经 136.342°
平近点角 84.792°
近地点: 195.444km
远地点: 205.066km
周期: 88.499分钟
每日圈数: 16.271343
详细信息
使用方式:
暂无